Preview of NWS' New Version of Forecast
This preview is not operational and should not be used for support decisions.

Regional Weather Roundup (RWR)

Issued by National Weather Service (NWS)

                            
000
ASUS43 KDMX 190501
RWRIA 

WEATHER ROUNDUP FOR IOWA
NATIONAL WEATHER SERVICE DES MOINES IA
1200 AM CDT FRI APR 19 2019

NOTE: "FAIR" INDICATES FEW OR NO CLOUDS BELOW 12,000 FEET WITH NO
SIGNIFICANT WEATHER AND/OR OBSTRUCTIONS TO VISIBILITY.

* - THESE STATIONS ARE NOT NWS STATIONS...THUS NOT UNDER NWS
QUALITY CONTROL.  THEY ALSO DO NOT REPORT WEATHER SUCH 
AS PRECIPITATION OR FOG.  

IAZ001>003-012>014-020>022-031>034-043>046-190600-
   NORTHWEST IOWA
  
CITY           SKY/WX    TMP DP  RH WIND       PRES   REMARKS
CARROLL *      CLEAR     41  39  93 NW12      29.97S                  
CHEROKEE *     CLEAR     40  37  91 NE7       30.01S WCI  35          
DENISON *      PTCLDY    41  39  93 NW3       30.01R                  
LE MARS *      CLEAR     41  37  87 NW8       30.03S                  
SHELDON *      CLEAR     36  36 100 N9        30.00S WCI  29          
SIOUX CITY     PTCLDY    41  36  82 NW9       30.03S                  
SPENCER        CLEAR     41  36  82 N9        30.00S                  
STORM LAKE *   CLEAR     41  39  93 N13       29.95F                  
$$
 
IAZ055>058-069>071-079>083-090>094-190600-
   SOUTHWEST IOWA
  
CITY           SKY/WX    TMP DP  RH WIND       PRES   REMARKS
ATLANTIC *     CLEAR     41  41 100 N8        29.98R                  
AUDUBON *      CLEAR     41  37  87 CALM      29.98S                  
CLARINDA *     CLEAR     45  39  81 N10       30.00R                  
COUNCIL BLFS * CLEAR     43  41  93 N7        30.00R                  
CRESTON *      CLOUDY    46  37  71 N14       29.95R                  
HARLAN  *      PTCLDY    41  39  93 N7        29.99R                  
LAMONI         MOCLDY    46  37  71 N10       29.93R                  
RED OAK *      CLEAR     41  39  93 NE6       29.99R                  
SHENANDOAH *   PTCLDY    45  37  76 N8        29.99R                  
$$
 
IAZ047>049-059>061-072>074-084-190600-
   CENTRAL IOWA
  
CITY           SKY/WX    TMP DP  RH WIND       PRES   REMARKS
AMES           CLEAR     43  38  82 N10       29.95S                  
ANKENY *       CLEAR     45  39  81 N10       29.95S                  
BOONE *        CLEAR     41  41 100 N8        29.94S                  
CHARITON *     CLOUDY    48  39  71 N12       29.91S                  
DES MOINES     PTCLDY    46  38  73 N9        29.94S                  
GRINNELL*      PTCLDY    42  37  83 N8        29.92S                  
KNOXVILLE *    CLEAR     46  39  76 N13       29.91S                  
MARSHALLTOWN   CLEAR     41  37  86 NW10      29.92S                  
NEWTON *       CLEAR     45  39  81 N9        29.92S                  
PELLA *        CLEAR     45  37  76 N8        29.92S                  
PERRY *        FAIR      42  39  89 NW8       29.96R                  
$$
 
IAZ004>006-015-016-023>025-035-036-190600-
   NORTH CENTRAL IOWA
  
CITY           SKY/WX    TMP DP  RH WIND       PRES   REMARKS
ALGONA *       CLEAR     39  39 100 NW9       29.96S WCI  33          
CLARION *      CLEAR     39  37  93 N7        29.96S WCI  34          
ESTHERVILLE    CLEAR     38  34  85 N10       29.99S WCI  31          
FORT DODGE *   CLEAR     41  37  86 VRB3      29.97S                  
MASON CITY     CLEAR     37  35  92 N9        29.96S WCI  30          
FOREST CITY *  FAIR      41  37  87 N7        29.96S                  
IOWA FALLS *   FAIR      42  38  88 N12       29.94F                  
$$

IAZ007>011-017>019-026>030-037>042-050>054-066-190600-
   NORTHEAST IOWA
  
CITY           SKY/WX    TMP DP  RH WIND       PRES   REMARKS
CEDAR RAPIDS   FAIR      43  36  76 N12       29.88S                  
CHARLES CITY * FAIR      39  36  87 N8        29.94S WCI  34          
CLINTON *      CLOUDY    45  36  70 N15       29.85R                  
DECORAH *      FAIR      41  36  81 N7        29.91S                  
DUBUQUE        FAIR      43  34  70 N15G26    29.85F                  
MONTICELLO *   FAIR      45  37  76 N12G18    29.87S                  
OELWEIN *      FAIR      39  37  93 N8        29.92S WCI  34          
WATERLOO       FAIR      40  36  86 N8        29.92F WCI  34          
$$
 
IAZ064-065-067-068-078-190600-
   EAST CENTRAL IOWA
  
CITY           SKY/WX    TMP DP  RH WIND       PRES   REMARKS
DAVENPORT      CLOUDY    45  35  68 N18G28    29.86R                  
IOWA CITY      FAIR      46  35  65 N15       29.89S                  
MT. PLEASANT * CLOUDY    46  37  71 N12       29.87R                  
MUSCATINE *    CLOUDY    48  36  61 N13       29.86S                  
QUAD CITIES    CLOUDY    48  36  63 N13       29.83R                  
$$
 
IAZ062-063-075>077-085>089-095>099-190600-
   SOUTHEAST IOWA
  
CITY           SKY/WX    TMP DP  RH WIND       PRES   REMARKS
BURLINGTON     CLOUDY    47  35  63 N14       29.84R                  
FAIRFIELD *    MOCLDY    45  36  70 N12       29.87S                  
FORT MADISON * CLOUDY    46  37  71 N10       29.86R                  
KEOKUK *       CLOUDY    48  37  66 N9G17     29.85R                  
OSKALOOSA *    FAIR      44  36  73 N9        29.90S                  
CENTERVILLE *  FAIR      46  39  76 N9        29.91R                  
OTTUMWA        PTCLDY    44  35  70 N10       29.89R                  
WASHINGTON *   PTCLDY    45  37  76 N12       29.88S                  
$$

ABBREVIATIONS USED IN REMARKS
   TC - TEMPERATURES IN CELSIUS
  WCI - WIND CHILL INDEX
   HX - HEAT INDEX
  VSB - VISIBILITY  
$$